owner,sensor,date,latitude,longitude,sea_surface_height_above_sea_level,qcFlag 
WAVCIS,ioos:station:WAVCIS:CSI16:1,2010-09-01T00:00:00Z,29.4012,-89.0355,9.614,11111222 
WAVCIS,ioos:station:WAVCIS:CSI16:1,2010-09-01T01:00:00Z,29.4012,-89.0355,9.671,11111222 
WAVCIS,ioos:station:WAVCIS:CSI16:1,2010-09-01T02:00:00Z,29.4012,-89.0355,9.724,11111222 
WAVCIS,ioos:station:WAVCIS:CSI16:1,2010-09-01T03:00:00Z,29.4012,-89.0355,9.763,11111222 
WAVCIS,ioos:station:WAVCIS:CSI16:1,2010-09-01T04:00:00Z,29.4012,-89.0355,9.805,11111222 
WAVCIS,ioos:station:WAVCIS:CSI16:1,2010-09-01T05:00:00Z,29.4012,-89.0355,9.834,11111222 
WAVCIS,ioos:station:WAVCIS:CSI16:1,2010-09-01T06:00:00Z,29.4012,-89.0355,9.846,11111222 
WAVCIS,ioos:station:WAVCIS:CSI16:1,2010-09-01T07:00:00Z,29.4012,-89.0355,9.852,11111222 
WAVCIS,ioos:station:WAVCIS:CSI16:1,2010-09-01T08:00:00Z,29.4012,-89.0355,9.845,11111222 
WAVCIS,ioos:station:WAVCIS:CSI16:1,2010-09-01T09:00:00Z,29.4012,-89.0355,9.82,11111222 
WAVCIS,ioos:station:WAVCIS:CSI16:1,2010-09-01T10:00:00Z,29.4012,-89.0355,9.794,11111222 
WAVCIS,ioos:station:WAVCIS:CSI16:1,2010-09-01T11:00:00Z,29.4012,-89.0355,9.755,11111222 
WAVCIS,ioos:station:WAVCIS:CSI16:1,2010-09-01T12:00:00Z,29.4012,-89.0355,9.692,11111222 
WAVCIS,ioos:station:WAVCIS:CSI16:1,2010-09-01T13:00:00Z,29.4012,-89.0355,9.629,11111222 
WAVCIS,ioos:station:WAVCIS:CSI16:1,2010-09-01T14:00:00Z,29.4012,-89.0355,9.571,11111222 
WAVCIS,ioos:station:WAVCIS:CSI16:1,2010-09-01T15:00:00Z,29.4012,-89.0355,9.516,11111222 
WAVCIS,ioos:station:WAVCIS:CSI16:1,2010-09-01T16:00:00Z,29.4012,-89.0355,9.462,11111222 
WAVCIS,ioos:station:WAVCIS:CSI16:1,2010-09-01T17:00:00Z,29.4012,-89.0355,9.432,11111222 
WAVCIS,ioos:station:WAVCIS:CSI16:1,2010-09-01T18:00:00Z,29.4012,-89.0355,9.4,11111222 
WAVCIS,ioos:station:WAVCIS:CSI16:1,2010-09-01T19:00:00Z,29.4012,-89.0355,9.379,11111222 
WAVCIS,ioos:station:WAVCIS:CSI16:1,2010-09-01T20:00:00Z,29.4012,-89.0355,9.383,11111222 
WAVCIS,ioos:station:WAVCIS:CSI16:1,2010-09-01T21:00:00Z,29.4012,-89.0355,9.393,11111222 
WAVCIS,ioos:station:WAVCIS:CSI16:1,2010-09-01T22:00:00Z,29.4012,-89.0355,9.402,11111222 
WAVCIS,ioos:station:WAVCIS:CSI16:1,2010-09-01T23:00:00Z,29.4012,-89.0355,9.441,11111222 
WAVCIS,ioos:station:WAVCIS:CSI16:1,2010-09-02T00:00:00Z,29.4012,-89.0355,9.482,11111222 
WAVCIS,ioos:station:WAVCIS:CSI16:1,2010-09-02T01:00:00Z,29.4012,-89.0355,9.544,11111222 
WAVCIS,ioos:station:WAVCIS:CSI16:1,2010-09-02T02:00:00Z,29.4012,-89.0355,9.609,11111222 
WAVCIS,ioos:station:WAVCIS:CSI16:1,2010-09-02T03:00:00Z,29.4012,-89.0355,9.658,11111222 
WAVCIS,ioos:station:WAVCIS:CSI16:1,2010-09-02T04:00:00Z,29.4012,-89.0355,9.708,11111222 
WAVCIS,ioos:station:WAVCIS:CSI16:1,2010-09-02T05:00:00Z,29.4012,-89.0355,9.759,11111222 
WAVCIS,ioos:station:WAVCIS:CSI16:1,2010-09-02T06:00:00Z,29.4012,-89.0355,9.792,11111222 
WAVCIS,ioos:station:WAVCIS:CSI16:1,2010-09-02T07:00:00Z,29.4012,-89.0355,9.813,11111222 
WAVCIS,ioos:station:WAVCIS:CSI16:1,2010-09-02T08:00:00Z,29.4012,-89.0355,9.823,11111222 
WAVCIS,ioos:station:WAVCIS:CSI16:1,2010-09-02T09:00:00Z,29.4012,-89.0355,9.821,11111222 
WAVCIS,ioos:station:WAVCIS:CSI16:1,2010-09-02T10:00:00Z,29.4012,-89.0355,9.812,11111222 
WAVCIS,ioos:station:WAVCIS:CSI16:1,2010-09-02T11:00:00Z,29.4012,-89.0355,9.777,11111222 
WAVCIS,ioos:station:WAVCIS:CSI16:1,2010-09-02T12:00:00Z,29.4012,-89.0355,9.729,11111222 
WAVCIS,ioos:station:WAVCIS:CSI16:1,2010-09-02T13:00:00Z,29.4012,-89.0355,9.687,11111222 
WAVCIS,ioos:station:WAVCIS:CSI16:1,2010-09-02T14:00:00Z,29.4012,-89.0355,9.617,11111222 
WAVCIS,ioos:station:WAVCIS:CSI16:1,2010-09-02T15:00:00Z,29.4012,-89.0355,9.551,11111222 
WAVCIS,ioos:station:WAVCIS:CSI16:1,2010-09-02T16:00:00Z,29.4012,-89.0355,9.496,11111222 
WAVCIS,ioos:station:WAVCIS:CSI16:1,2010-09-02T17:00:00Z,29.4012,-89.0355,9.442,11111222 
WAVCIS,ioos:station:WAVCIS:CSI16:1,2010-09-02T18:00:00Z,29.4012,-89.0355,9.388,11111222 
WAVCIS,ioos:station:WAVCIS:CSI16:1,2010-09-02T19:00:00Z,29.4012,-89.0355,9.355,11111222 
WAVCIS,ioos:station:WAVCIS:CSI16:1,2010-09-02T20:00:00Z,29.4012,-89.0355,9.344,11111222 
WAVCIS,ioos:station:WAVCIS:CSI16:1,2010-09-02T21:00:00Z,29.4012,-89.0355,9.329,11111222 
WAVCIS,ioos:station:WAVCIS:CSI16:1,2010-09-02T22:00:00Z,29.4012,-89.0355,9.351,11111222 
WAVCIS,ioos:station:WAVCIS:CSI16:1,2010-09-02T23:00:00Z,29.4012,-89.0355,9.385,11111222 
WAVCIS,ioos:station:WAVCIS:CSI16:1,2010-09-03T00:00:00Z,29.4012,-89.0355,9.419,11111222 
WAVCIS,ioos:station:WAVCIS:CSI16:1,2010-09-03T01:00:00Z,29.4012,-89.0355,9.467,11111222 
WAVCIS,ioos:station:WAVCIS:CSI16:1,2010-09-03T02:00:00Z,29.4012,-89.0355,9.518,11111222 
WAVCIS,ioos:station:WAVCIS:CSI16:1,2010-09-03T03:00:00Z,29.4012,-89.0355,9.566,11111222 
WAVCIS,ioos:station:WAVCIS:CSI16:1,2010-09-03T04:00:00Z,29.4012,-89.0355,9.611,11111222 
WAVCIS,ioos:station:WAVCIS:CSI16:1,2010-09-03T05:00:00Z,29.4012,-89.0355,9.657,11111222 
WAVCIS,ioos:station:WAVCIS:CSI16:1,2010-09-03T06:00:00Z,29.4012,-89.0355,9.698,11111222 
WAVCIS,ioos:station:WAVCIS:CSI16:1,2010-09-03T07:00:00Z,29.4012,-89.0355,9.721,11111222 
WAVCIS,ioos:station:WAVCIS:CSI16:1,2010-09-03T08:00:00Z,29.4012,-89.0355,9.733,11111222 
WAVCIS,ioos:station:WAVCIS:CSI16:1,2010-09-03T09:00:00Z,29.4012,-89.0355,9.731,11111222 
WAVCIS,ioos:station:WAVCIS:CSI16:1,2010-09-03T10:00:00Z,29.4012,-89.0355,9.727,11111222 
WAVCIS,ioos:station:WAVCIS:CSI16:1,2010-09-03T11:00:00Z,29.4012,-89.0355,9.715,11111222 
WAVCIS,ioos:station:WAVCIS:CSI16:1,2010-09-03T12:00:00Z,29.4012,-89.0355,9.685,11111222 
WAVCIS,ioos:station:WAVCIS:CSI16:1,2010-09-03T13:00:00Z,29.4012,-89.0355,9.645,11111222 
WAVCIS,ioos:station:WAVCIS:CSI16:1,2010-09-03T14:00:00Z,29.4012,-89.0355,9.587,11111222 
WAVCIS,ioos:station:WAVCIS:CSI16:1,2010-09-03T15:00:00Z,29.4012,-89.0355,9.526,11111222 
WAVCIS,ioos:station:WAVCIS:CSI16:1,2010-09-03T16:00:00Z,29.4012,-89.0355,9.447,11111222 
WAVCIS,ioos:station:WAVCIS:CSI16:1,2010-09-03T17:00:00Z,29.4012,-89.0355,9.384,11111222 
WAVCIS,ioos:station:WAVCIS:CSI16:1,2010-09-03T18:00:00Z,29.4012,-89.0355,9.337,11111222 
WAVCIS,ioos:station:WAVCIS:CSI16:1,2010-09-03T19:00:00Z,29.4012,-89.0355,9.3,11111222 
WAVCIS,ioos:station:WAVCIS:CSI16:1,2010-09-03T20:00:00Z,29.4012,-89.0355,9.263,11111222 
WAVCIS,ioos:station:WAVCIS:CSI16:1,2010-09-03T21:00:00Z,29.4012,-89.0355,9.252,11111222 
WAVCIS,ioos:station:WAVCIS:CSI16:1,2010-09-03T22:00:00Z,29.4012,-89.0355,9.27,11111222 
WAVCIS,ioos:station:WAVCIS:CSI16:1,2010-09-03T23:00:00Z,29.4012,-89.0355,9.301,11111222 
WAVCIS,ioos:station:WAVCIS:CSI16:1,2010-09-04T00:00:00Z,29.4012,-89.0355,9.353,11111222 
WAVCIS,ioos:station:WAVCIS:CSI16:1,2010-09-04T01:00:00Z,29.4012,-89.0355,9.403,11111222 
WAVCIS,ioos:station:WAVCIS:CSI16:1,2010-09-04T02:00:00Z,29.4012,-89.0355,9.466,11111222 
WAVCIS,ioos:station:WAVCIS:CSI16:1,2010-09-04T03:00:00Z,29.4012,-89.0355,9.53,11111222 
WAVCIS,ioos:station:WAVCIS:CSI16:1,2010-09-04T04:00:00Z,29.4012,-89.0355,9.578,11111222 
WAVCIS,ioos:station:WAVCIS:CSI16:1,2010-09-04T05:00:00Z,29.4012,-89.0355,9.621,11111222 
WAVCIS,ioos:station:WAVCIS:CSI16:1,2010-09-04T06:00:00Z,29.4012,-89.0355,9.658,11111222 
WAVCIS,ioos:station:WAVCIS:CSI16:1,2010-09-04T07:00:00Z,29.4012,-89.0355,9.701,11111222 
WAVCIS,ioos:station:WAVCIS:CSI16:1,2010-09-04T08:00:00Z,29.4012,-89.0355,9.72,11111222 
WAVCIS,ioos:station:WAVCIS:CSI16:1,2010-09-04T09:00:00Z,29.4012,-89.0355,9.739,11111222 
WAVCIS,ioos:station:WAVCIS:CSI16:1,2010-09-04T10:00:00Z,29.4012,-89.0355,9.757,11111222 
WAVCIS,ioos:station:WAVCIS:CSI16:1,2010-09-04T11:00:00Z,29.4012,-89.0355,9.746,11111222 
WAVCIS,ioos:station:WAVCIS:CSI16:1,2010-09-04T12:00:00Z,29.4012,-89.0355,9.729,11111222 
WAVCIS,ioos:station:WAVCIS:CSI16:1,2010-09-04T13:00:00Z,29.4012,-89.0355,9.709,11111222 
WAVCIS,ioos:station:WAVCIS:CSI16:1,2010-09-04T14:00:00Z,29.4012,-89.0355,9.644,11111222 
WAVCIS,ioos:station:WAVCIS:CSI16:1,2010-09-04T15:00:00Z,29.4012,-89.0355,9.58,11111222 
WAVCIS,ioos:station:WAVCIS:CSI16:1,2010-09-04T16:00:00Z,29.4012,-89.0355,9.505,11111222 
WAVCIS,ioos:station:WAVCIS:CSI16:1,2010-09-04T17:00:00Z,29.4012,-89.0355,9.43,11111222 
WAVCIS,ioos:station:WAVCIS:CSI16:1,2010-09-04T18:00:00Z,29.4012,-89.0355,9.359,11111222 
WAVCIS,ioos:station:WAVCIS:CSI16:1,2010-09-04T19:00:00Z,29.4012,-89.0355,9.302,11111222 
WAVCIS,ioos:station:WAVCIS:CSI16:1,2010-09-04T20:00:00Z,29.4012,-89.0355,9.261,11111222 
WAVCIS,ioos:station:WAVCIS:CSI16:1,2010-09-04T21:00:00Z,29.4012,-89.0355,9.242,11111222 
WAVCIS,ioos:station:WAVCIS:CSI16:1,2010-09-04T22:00:00Z,29.4012,-89.0355,9.239,11111222 
WAVCIS,ioos:station:WAVCIS:CSI16:1,2010-09-04T23:00:00Z,29.4012,-89.0355,9.261,11111222 
WAVCIS,ioos:station:WAVCIS:CSI16:1,2010-09-05T00:00:00Z,29.4012,-89.0355,9.293,11111222 
WAVCIS,ioos:station:WAVCIS:CSI16:1,2010-09-05T01:00:00Z,29.4012,-89.0355,9.34,11111222 
WAVCIS,ioos:station:WAVCIS:CSI16:1,2010-09-05T02:00:00Z,29.4012,-89.0355,9.385,11111222 
WAVCIS,ioos:station:WAVCIS:CSI16:1,2010-09-05T03:00:00Z,29.4012,-89.0355,9.441,11111222 
WAVCIS,ioos:station:WAVCIS:CSI16:1,2010-09-05T04:00:00Z,29.4012,-89.0355,9.492,11111222 
WAVCIS,ioos:station:WAVCIS:CSI16:1,2010-09-05T05:00:00Z,29.4012,-89.0355,9.53,11111222 
WAVCIS,ioos:station:WAVCIS:CSI16:1,2010-09-05T06:00:00Z,29.4012,-89.0355,9.579,11111222 
WAVCIS,ioos:station:WAVCIS:CSI16:1,2010-09-05T07:00:00Z,29.4012,-89.0355,9.621,11111222 
WAVCIS,ioos:station:WAVCIS:CSI16:1,2010-09-05T08:00:00Z,29.4012,-89.0355,9.657,11111222 
WAVCIS,ioos:station:WAVCIS:CSI16:1,2010-09-05T09:00:00Z,29.4012,-89.0355,9.683,11111222 
WAVCIS,ioos:station:WAVCIS:CSI16:1,2010-09-05T10:00:00Z,29.4012,-89.0355,9.704,11111222 
WAVCIS,ioos:station:WAVCIS:CSI16:1,2010-09-05T11:00:00Z,29.4012,-89.0355,9.721,11111222 
WAVCIS,ioos:station:WAVCIS:CSI16:1,2010-09-05T12:00:00Z,29.4012,-89.0355,9.733,11111222 
WAVCIS,ioos:station:WAVCIS:CSI16:1,2010-09-05T13:00:00Z,29.4012,-89.0355,9.714,11111222 
WAVCIS,ioos:station:WAVCIS:CSI16:1,2010-09-05T14:00:00Z,29.4012,-89.0355,9.692,11111222 
WAVCIS,ioos:station:WAVCIS:CSI16:1,2010-09-05T15:00:00Z,29.4012,-89.0355,9.661,11111222 
WAVCIS,ioos:station:WAVCIS:CSI16:1,2010-09-05T16:00:00Z,29.4012,-89.0355,9.59,11111222 
WAVCIS,ioos:station:WAVCIS:CSI16:1,2010-09-05T17:00:00Z,29.4012,-89.0355,9.521,11111222 
WAVCIS,ioos:station:WAVCIS:CSI16:1,2010-09-05T18:00:00Z,29.4012,-89.0355,9.442,11111222 
WAVCIS,ioos:station:WAVCIS:CSI16:1,2010-09-05T19:00:00Z,29.4012,-89.0355,9.371,11111222 
WAVCIS,ioos:station:WAVCIS:CSI16:1,2010-09-05T20:00:00Z,29.4012,-89.0355,9.299,11111222 
WAVCIS,ioos:station:WAVCIS:CSI16:1,2010-09-05T21:00:00Z,29.4012,-89.0355,9.27,11111222 
WAVCIS,ioos:station:WAVCIS:CSI16:1,2010-09-05T22:00:00Z,29.4012,-89.0355,8.548,11111222 
WAVCIS,ioos:station:WAVCIS:CSI16:1,2010-09-05T23:00:00Z,29.4012,-89.0355,8.562,11111222 
WAVCIS,ioos:station:WAVCIS:CSI16:1,2010-09-06T00:00:00Z,29.4012,-89.0355,8.596,11111222 
WAVCIS,ioos:station:WAVCIS:CSI16:1,2010-09-06T01:00:00Z,29.4012,-89.0355,8.635,11111222 
WAVCIS,ioos:station:WAVCIS:CSI16:1,2010-09-06T02:00:00Z,29.4012,-89.0355,8.682,11111222 
WAVCIS,ioos:station:WAVCIS:CSI16:1,2010-09-06T03:00:00Z,29.4012,-89.0355,8.734,11111222 
WAVCIS,ioos:station:WAVCIS:CSI16:1,2010-09-06T04:00:00Z,29.4012,-89.0355,8.772,11111222 
WAVCIS,ioos:station:WAVCIS:CSI16:1,2010-09-06T05:00:00Z,29.4012,-89.0355,8.811,11111222 
WAVCIS,ioos:station:WAVCIS:CSI16:1,2010-09-06T06:00:00Z,29.4012,-89.0355,8.839,11111222 
WAVCIS,ioos:station:WAVCIS:CSI16:1,2010-09-06T07:00:00Z,29.4012,-89.0355,8.868,11111222 
WAVCIS,ioos:station:WAVCIS:CSI16:1,2010-09-06T08:00:00Z,29.4012,-89.0355,8.913,11111222 
WAVCIS,ioos:station:WAVCIS:CSI16:1,2010-09-06T09:00:00Z,29.4012,-89.0355,8.961,11111222 
WAVCIS,ioos:station:WAVCIS:CSI16:1,2010-09-06T10:00:00Z,29.4012,-89.0355,8.997,11111222 
WAVCIS,ioos:station:WAVCIS:CSI16:1,2010-09-06T11:00:00Z,29.4012,-89.0355,9.019,11111222 
WAVCIS,ioos:station:WAVCIS:CSI16:1,2010-09-06T12:00:00Z,29.4012,-89.0355,9.044,11111222 
WAVCIS,ioos:station:WAVCIS:CSI16:1,2010-09-06T13:00:00Z,29.4012,-89.0355,9.066,11111222 
WAVCIS,ioos:station:WAVCIS:CSI16:1,2010-09-06T14:00:00Z,29.4012,-89.0355,9.06,11111222 
WAVCIS,ioos:station:WAVCIS:CSI16:1,2010-09-06T15:00:00Z,29.4012,-89.0355,9.044,11111222 
WAVCIS,ioos:station:WAVCIS:CSI16:1,2010-09-06T16:00:00Z,29.4012,-89.0355,9.011,11111222 
WAVCIS,ioos:station:WAVCIS:CSI16:1,2010-09-06T17:00:00Z,29.4012,-89.0355,8.938,11111222 
WAVCIS,ioos:station:WAVCIS:CSI16:1,2010-09-06T18:00:00Z,29.4012,-89.0355,8.869,11111222 
WAVCIS,ioos:station:WAVCIS:CSI16:1,2010-09-06T19:00:00Z,29.4012,-89.0355,8.788,11111222 
WAVCIS,ioos:station:WAVCIS:CSI16:1,2010-09-06T20:00:00Z,29.4012,-89.0355,8.723,11111222 
WAVCIS,ioos:station:WAVCIS:CSI16:1,2010-09-06T21:00:00Z,29.4012,-89.0355,8.696,11111222 
WAVCIS,ioos:station:WAVCIS:CSI16:1,2010-09-06T22:00:00Z,29.4012,-89.0355,8.674,11111222 
WAVCIS,ioos:station:WAVCIS:CSI16:1,2010-09-06T23:00:00Z,29.4012,-89.0355,8.662,11111222 
WAVCIS,ioos:station:WAVCIS:CSI16:1,2010-09-07T00:00:00Z,29.4012,-89.0355,8.675,11111222 
WAVCIS,ioos:station:WAVCIS:CSI16:1,2010-09-07T01:00:00Z,29.4012,-89.0355,8.701,11111222 
WAVCIS,ioos:station:WAVCIS:CSI16:1,2010-09-07T02:00:00Z,29.4012,-89.0355,8.738,11111222 
WAVCIS,ioos:station:WAVCIS:CSI16:1,2010-09-07T03:00:00Z,29.4012,-89.0355,8.771,11111222 
WAVCIS,ioos:station:WAVCIS:CSI16:1,2010-09-07T04:00:00Z,29.4012,-89.0355,8.801,11111222 
WAVCIS,ioos:station:WAVCIS:CSI16:1,2010-09-07T05:00:00Z,29.4012,-89.0355,8.826,11111222 
WAVCIS,ioos:station:WAVCIS:CSI16:1,2010-09-07T06:00:00Z,29.4012,-89.0355,8.838,11111222 
WAVCIS,ioos:station:WAVCIS:CSI16:1,2010-09-07T07:00:00Z,29.4012,-89.0355,8.857,11111222 
WAVCIS,ioos:station:WAVCIS:CSI16:1,2010-09-07T08:00:00Z,29.4012,-89.0355,8.87,11111222 
WAVCIS,ioos:station:WAVCIS:CSI16:1,2010-09-07T09:00:00Z,29.4012,-89.0355,8.912,11111222 
WAVCIS,ioos:station:WAVCIS:CSI16:1,2010-09-07T10:00:00Z,29.4012,-89.0355,8.94,11111222 
WAVCIS,ioos:station:WAVCIS:CSI16:1,2010-09-07T11:00:00Z,29.4012,-89.0355,8.973,11111222 
WAVCIS,ioos:station:WAVCIS:CSI16:1,2010-09-07T12:00:00Z,29.4012,-89.0355,9.007,11111222 
WAVCIS,ioos:station:WAVCIS:CSI16:1,2010-09-07T13:00:00Z,29.4012,-89.0355,9.014,11111222 
WAVCIS,ioos:station:WAVCIS:CSI16:1,2010-09-07T14:00:00Z,29.4012,-89.0355,9.028,11111222 
WAVCIS,ioos:station:WAVCIS:CSI16:1,2010-09-07T15:00:00Z,29.4012,-89.0355,9.029,11111222 
WAVCIS,ioos:station:WAVCIS:CSI16:1,2010-09-07T16:00:00Z,29.4012,-89.0355,9.016,11111222 
WAVCIS,ioos:station:WAVCIS:CSI16:1,2010-09-07T17:00:00Z,29.4012,-89.0355,8.968,11111222 
WAVCIS,ioos:station:WAVCIS:CSI16:1,2010-09-07T18:00:00Z,29.4012,-89.0355,8.927,11111222 
WAVCIS,ioos:station:WAVCIS:CSI16:1,2010-09-07T19:00:00Z,29.4012,-89.0355,8.872,11111222 
WAVCIS,ioos:station:WAVCIS:CSI16:1,2010-09-07T20:00:00Z,29.4012,-89.0355,8.805,11111222 
WAVCIS,ioos:station:WAVCIS:CSI16:1,2010-09-07T21:00:00Z,29.4012,-89.0355,8.781,11111222 
WAVCIS,ioos:station:WAVCIS:CSI16:1,2010-09-07T22:00:00Z,29.4012,-89.0355,8.758,11111222 
WAVCIS,ioos:station:WAVCIS:CSI16:1,2010-09-07T23:00:00Z,29.4012,-89.0355,8.746,11111222 
WAVCIS,ioos:station:WAVCIS:CSI16:1,2010-09-08T00:00:00Z,29.4012,-89.0355,8.754,11111222 
WAVCIS,ioos:station:WAVCIS:CSI16:1,2010-09-08T01:00:00Z,29.4012,-89.0355,8.764,11111222 
WAVCIS,ioos:station:WAVCIS:CSI16:1,2010-09-08T02:00:00Z,29.4012,-89.0355,8.782,11111222 
WAVCIS,ioos:station:WAVCIS:CSI16:1,2010-09-08T03:00:00Z,29.4012,-89.0355,8.797,11111222 
WAVCIS,ioos:station:WAVCIS:CSI16:1,2010-09-08T04:00:00Z,29.4012,-89.0355,8.814,11111222 
WAVCIS,ioos:station:WAVCIS:CSI16:1,2010-09-08T05:00:00Z,29.4012,-89.0355,8.827,11111222 
WAVCIS,ioos:station:WAVCIS:CSI16:1,2010-09-08T06:00:00Z,29.4012,-89.0355,8.834,11111222 
WAVCIS,ioos:station:WAVCIS:CSI16:1,2010-09-08T07:00:00Z,29.4012,-89.0355,8.829,11111222 
WAVCIS,ioos:station:WAVCIS:CSI16:1,2010-09-08T08:00:00Z,29.4012,-89.0355,8.829,11111222 
WAVCIS,ioos:station:WAVCIS:CSI16:1,2010-09-08T09:00:00Z,29.4012,-89.0355,8.837,11111222 
WAVCIS,ioos:station:WAVCIS:CSI16:1,2010-09-08T10:00:00Z,29.4012,-89.0355,8.843,11111222 
WAVCIS,ioos:station:WAVCIS:CSI16:1,2010-09-08T11:00:00Z,29.4012,-89.0355,8.878,11111222 
WAVCIS,ioos:station:WAVCIS:CSI16:1,2010-09-08T12:00:00Z,29.4012,-89.0355,8.91,11111222 
WAVCIS,ioos:station:WAVCIS:CSI16:1,2010-09-08T13:00:00Z,29.4012,-89.0355,8.93,11111222 
WAVCIS,ioos:station:WAVCIS:CSI16:1,2010-09-08T14:00:00Z,29.4012,-89.0355,8.951,11111222 
WAVCIS,ioos:station:WAVCIS:CSI16:1,2010-09-08T15:00:00Z,29.4012,-89.0355,8.975,11111222 
WAVCIS,ioos:station:WAVCIS:CSI16:1,2010-09-08T16:00:00Z,29.4012,-89.0355,8.984,11111222 
WAVCIS,ioos:station:WAVCIS:CSI16:1,2010-09-08T17:00:00Z,29.4012,-89.0355,8.97,11111222 
WAVCIS,ioos:station:WAVCIS:CSI16:1,2010-09-08T18:00:00Z,29.4012,-89.0355,8.956,11111222 
WAVCIS,ioos:station:WAVCIS:CSI16:1,2010-09-08T19:00:00Z,29.4012,-89.0355,8.923,11111222 
WAVCIS,ioos:station:WAVCIS:CSI16:1,2010-09-08T20:00:00Z,29.4012,-89.0355,8.885,11111222 
WAVCIS,ioos:station:WAVCIS:CSI16:1,2010-09-08T21:00:00Z,29.4012,-89.0355,8.857,11111222 
WAVCIS,ioos:station:WAVCIS:CSI16:1,2010-09-08T22:00:00Z,29.4012,-89.0355,8.839,11111222 
WAVCIS,ioos:station:WAVCIS:CSI16:1,2010-09-08T23:00:00Z,29.4012,-89.0355,8.851,11111222 
WAVCIS,ioos:station:WAVCIS:CSI16:1,2010-09-09T00:00:00Z,29.4012,-89.0355,8.85,11111222 
WAVCIS,ioos:station:WAVCIS:CSI16:1,2010-09-09T01:00:00Z,29.4012,-89.0355,8.857,11111222 
WAVCIS,ioos:station:WAVCIS:CSI16:1,2010-09-09T02:00:00Z,29.4012,-89.0355,8.874,11111222 
WAVCIS,ioos:station:WAVCIS:CSI16:1,2010-09-09T03:00:00Z,29.4012,-89.0355,8.894,11111222 
WAVCIS,ioos:station:WAVCIS:CSI16:1,2010-09-09T04:00:00Z,29.4012,-89.0355,8.901,11111222 
WAVCIS,ioos:station:WAVCIS:CSI16:1,2010-09-09T05:00:00Z,29.4012,-89.0355,8.905,11111222 
WAVCIS,ioos:station:WAVCIS:CSI16:1,2010-09-09T06:00:00Z,29.4012,-89.0355,8.892,11111222 
WAVCIS,ioos:station:WAVCIS:CSI16:1,2010-09-09T07:00:00Z,29.4012,-89.0355,8.871,11111222 
WAVCIS,ioos:station:WAVCIS:CSI16:1,2010-09-09T08:00:00Z,29.4012,-89.0355,8.844,11111222 
WAVCIS,ioos:station:WAVCIS:CSI16:1,2010-09-09T09:00:00Z,29.4012,-89.0355,8.823,11111222 
WAVCIS,ioos:station:WAVCIS:CSI16:1,2010-09-09T10:00:00Z,29.4012,-89.0355,8.827,11111222 
WAVCIS,ioos:station:WAVCIS:CSI16:1,2010-09-09T11:00:00Z,29.4012,-89.0355,8.829,11111222 
WAVCIS,ioos:station:WAVCIS:CSI16:1,2010-09-09T12:00:00Z,29.4012,-89.0355,8.844,11111222 
WAVCIS,ioos:station:WAVCIS:CSI16:1,2010-09-09T13:00:00Z,29.4012,-89.0355,8.851,11111222 
WAVCIS,ioos:station:WAVCIS:CSI16:1,2010-09-09T14:00:00Z,29.4012,-89.0355,8.86,11111222 
WAVCIS,ioos:station:WAVCIS:CSI16:1,2010-09-09T15:00:00Z,29.4012,-89.0355,8.882,11111222 
WAVCIS,ioos:station:WAVCIS:CSI16:1,2010-09-09T16:00:00Z,29.4012,-89.0355,8.897,11111222 
WAVCIS,ioos:station:WAVCIS:CSI16:1,2010-09-09T17:00:00Z,29.4012,-89.0355,8.904,11111222 
WAVCIS,ioos:station:WAVCIS:CSI16:1,2010-09-09T18:00:00Z,29.4012,-89.0355,8.905,11111222 
WAVCIS,ioos:station:WAVCIS:CSI16:1,2010-09-09T19:00:00Z,29.4012,-89.0355,8.885,11111222 
WAVCIS,ioos:station:WAVCIS:CSI16:1,2010-09-09T20:00:00Z,29.4012,-89.0355,8.87,11111222 
WAVCIS,ioos:station:WAVCIS:CSI16:1,2010-09-09T21:00:00Z,29.4012,-89.0355,8.856,11111222 
WAVCIS,ioos:station:WAVCIS:CSI16:1,2010-09-09T22:00:00Z,29.4012,-89.0355,8.837,11111222 
WAVCIS,ioos:station:WAVCIS:CSI16:1,2010-09-09T23:00:00Z,29.4012,-89.0355,8.864,11111222 
WAVCIS,ioos:station:WAVCIS:CSI16:1,2010-09-10T00:00:00Z,29.4012,-89.0355,8.878,11111222 
WAVCIS,ioos:station:WAVCIS:CSI16:1,2010-09-10T01:00:00Z,29.4012,-89.0355,8.897,11111222 
WAVCIS,ioos:station:WAVCIS:CSI16:1,2010-09-10T02:00:00Z,29.4012,-89.0355,8.919,11111222 
WAVCIS,ioos:station:WAVCIS:CSI16:1,2010-09-10T03:00:00Z,29.4012,-89.0355,8.915,11111222 
WAVCIS,ioos:station:WAVCIS:CSI16:1,2010-09-10T04:00:00Z,29.4012,-89.0355,8.914,11111222 
WAVCIS,ioos:station:WAVCIS:CSI16:1,2010-09-10T05:00:00Z,29.4012,-89.0355,8.912,11111222 
WAVCIS,ioos:station:WAVCIS:CSI16:1,2010-09-10T06:00:00Z,29.4012,-89.0355,8.897,11111222 
WAVCIS,ioos:station:WAVCIS:CSI16:1,2010-09-10T07:00:00Z,29.4012,-89.0355,8.874,11111222 
WAVCIS,ioos:station:WAVCIS:CSI16:1,2010-09-10T08:00:00Z,29.4012,-89.0355,8.85,11111222 
WAVCIS,ioos:station:WAVCIS:CSI16:1,2010-09-10T09:00:00Z,29.4012,-89.0355,8.806,11111222 
WAVCIS,ioos:station:WAVCIS:CSI16:1,2010-09-10T10:00:00Z,29.4012,-89.0355,8.769,11111222 
WAVCIS,ioos:station:WAVCIS:CSI16:1,2010-09-10T11:00:00Z,29.4012,-89.0355,8.751,11111222 
WAVCIS,ioos:station:WAVCIS:CSI16:1,2010-09-10T12:00:00Z,29.4012,-89.0355,8.744,11111222 
WAVCIS,ioos:station:WAVCIS:CSI16:1,2010-09-10T13:00:00Z,29.4012,-89.0355,8.753,11111222 
WAVCIS,ioos:station:WAVCIS:CSI16:1,2010-09-10T14:00:00Z,29.4012,-89.0355,8.76,11111222 
WAVCIS,ioos:station:WAVCIS:CSI16:1,2010-09-10T15:00:00Z,29.4012,-89.0355,8.767,11111222 
WAVCIS,ioos:station:WAVCIS:CSI16:1,2010-09-10T16:00:00Z,29.4012,-89.0355,8.771,11111222 
WAVCIS,ioos:station:WAVCIS:CSI16:1,2010-09-10T17:00:00Z,29.4012,-89.0355,8.795,11111222 
WAVCIS,ioos:station:WAVCIS:CSI16:1,2010-09-10T18:00:00Z,29.4012,-89.0355,8.806,11111222 
WAVCIS,ioos:station:WAVCIS:CSI16:1,2010-09-10T19:00:00Z,29.4012,-89.0355,8.812,11111222 
WAVCIS,ioos:station:WAVCIS:CSI16:1,2010-09-10T20:00:00Z,29.4012,-89.0355,8.83,11111222 
WAVCIS,ioos:station:WAVCIS:CSI16:1,2010-09-10T21:00:00Z,29.4012,-89.0355,8.821,11111222 
WAVCIS,ioos:station:WAVCIS:CSI16:1,2010-09-10T22:00:00Z,29.4012,-89.0355,8.834,11111222 
WAVCIS,ioos:station:WAVCIS:CSI16:1,2010-09-10T23:00:00Z,29.4012,-89.0355,8.855,11111222 
WAVCIS,ioos:station:WAVCIS:CSI16:1,2010-09-11T00:00:00Z,29.4012,-89.0355,8.875,11111222 
WAVCIS,ioos:station:WAVCIS:CSI16:1,2010-09-11T01:00:00Z,29.4012,-89.0355,8.908,11111222 
WAVCIS,ioos:station:WAVCIS:CSI16:1,2010-09-11T02:00:00Z,29.4012,-89.0355,8.933,11111222 
WAVCIS,ioos:station:WAVCIS:CSI16:1,2010-09-11T03:00:00Z,29.4012,-89.0355,8.937,11111222 
WAVCIS,ioos:station:WAVCIS:CSI16:1,2010-09-11T04:00:00Z,29.4012,-89.0355,8.94,11111222 
WAVCIS,ioos:station:WAVCIS:CSI16:1,2010-09-11T05:00:00Z,29.4012,-89.0355,8.937,11111222 
WAVCIS,ioos:station:WAVCIS:CSI16:1,2010-09-11T06:00:00Z,29.4012,-89.0355,8.921,11111222 
WAVCIS,ioos:station:WAVCIS:CSI16:1,2010-09-11T07:00:00Z,29.4012,-89.0355,8.891,11111222 
WAVCIS,ioos:station:WAVCIS:CSI16:1,2010-09-11T08:00:00Z,29.4012,-89.0355,8.849,11111222 
WAVCIS,ioos:station:WAVCIS:CSI16:1,2010-09-11T09:00:00Z,29.4012,-89.0355,8.795,11111222 
WAVCIS,ioos:station:WAVCIS:CSI16:1,2010-09-11T10:00:00Z,29.4012,-89.0355,8.733,11111222 
WAVCIS,ioos:station:WAVCIS:CSI16:1,2010-09-11T11:00:00Z,29.4012,-89.0355,8.687,11111222 
WAVCIS,ioos:station:WAVCIS:CSI16:1,2010-09-11T12:00:00Z,29.4012,-89.0355,8.657,11111222 
WAVCIS,ioos:station:WAVCIS:CSI16:1,2010-09-11T13:00:00Z,29.4012,-89.0355,8.645,11111222 
WAVCIS,ioos:station:WAVCIS:CSI16:1,2010-09-11T14:00:00Z,29.4012,-89.0355,8.632,11111222 
WAVCIS,ioos:station:WAVCIS:CSI16:1,2010-09-11T15:00:00Z,29.4012,-89.0355,8.627,11111222 
WAVCIS,ioos:station:WAVCIS:CSI16:1,2010-09-11T16:00:00Z,29.4012,-89.0355,8.619,11111222 
WAVCIS,ioos:station:WAVCIS:CSI16:1,2010-09-11T17:00:00Z,29.4012,-89.0355,8.634,11111222 
WAVCIS,ioos:station:WAVCIS:CSI16:1,2010-09-11T18:00:00Z,29.4012,-89.0355,8.653,11111222 
WAVCIS,ioos:station:WAVCIS:CSI16:1,2010-09-11T19:00:00Z,29.4012,-89.0355,8.672,11111222 
WAVCIS,ioos:station:WAVCIS:CSI16:1,2010-09-11T20:00:00Z,29.4012,-89.0355,8.686,11111222 
WAVCIS,ioos:station:WAVCIS:CSI16:1,2010-09-11T21:00:00Z,29.4012,-89.0355,8.72,11111222 
WAVCIS,ioos:station:WAVCIS:CSI16:1,2010-09-11T22:00:00Z,29.4012,-89.0355,8.738,11111222 
WAVCIS,ioos:station:WAVCIS:CSI16:1,2010-09-11T23:00:00Z,29.4012,-89.0355,8.779,11111222 
WAVCIS,ioos:station:WAVCIS:CSI16:1,2010-09-12T00:00:00Z,29.4012,-89.0355,8.817,11111222 
WAVCIS,ioos:station:WAVCIS:CSI16:1,2010-09-12T01:00:00Z,29.4012,-89.0355,8.857,11111222 
WAVCIS,ioos:station:WAVCIS:CSI16:1,2010-09-12T02:00:00Z,29.4012,-89.0355,8.903,11111222 
WAVCIS,ioos:station:WAVCIS:CSI16:1,2010-09-12T03:00:00Z,29.4012,-89.0355,8.928,11111222 
WAVCIS,ioos:station:WAVCIS:CSI16:1,2010-09-12T04:00:00Z,29.4012,-89.0355,8.945,11111222 